GFSNIL_prec_pwat_057.txt.gz
Precipitable_Water
1.23 1.19 1.14 1.09 1.10 1.12 1.06 0.99 0.93 0.87 0.88 0.83 0.82 0.81 0.86 0.86 0.80 0.71 0.62 0.59 0.53 0.46
1.24 1.20 1.14 1.12 1.18 1.11 1.01 0.97 0.95 0.93 0.89 0.84 0.85 0.90 0.84 0.77 0.70 0.65 0.62 0.55 0.51 0.51
1.18 1.16 1.13 1.17 1.11 1.04 0.97 0.98 0.96 0.93 0.87 0.89 0.92 0.87 0.79 0.71 0.65 0.65 0.58 0.55 0.52 0.48
1.16 1.16 1.20 1.17 1.09 1.07 1.06 1.05 0.93 0.92 0.92 0.92 0.85 0.79 0.75 0.70 0.69 0.61 0.56 0.53 0.48 0.44
1.17 1.18 1.19 1.17 1.13 1.13 1.07 1.05 0.96 0.90 0.91 0.87 0.83 0.78 0.75 0.69 0.60 0.57 0.52 0.48 0.43 0.38
1.12 1.14 1.12 1.09 1.13 1.10 1.09 0.99 0.96 0.89 0.84 0.80 0.78 0.76 0.69 0.63 0.58 0.53 0.49 0.44 0.39 0.31
1.03 1.03 1.04 1.09 1.08 1.00 0.96 0.89 0.85 0.81 0.82 0.79 0.77 0.68 0.66 0.62 0.54 0.50 0.43 0.38 0.33 0.30
0.91 0.93 0.94 0.95 0.91 0.85 0.81 0.79 0.79 0.80 0.74 0.72 0.71 0.69 0.64 0.58 0.49 0.42 0.36 0.33 0.31 0.30
0.84 0.84 0.77 0.76 0.71 0.78 0.73 0.75 0.71 0.71 0.70 0.70 0.69 0.68 0.61 0.51 0.42 0.34 0.31 0.28 0.28 0.29
0.68 0.67 0.67 0.73 0.74 0.66 0.67 0.68 0.70 0.72 0.71 0.68 0.69 0.56 0.46 0.39 0.34 0.31 0.29 0.27 0.27 0.28
0.64 0.67 0.68 0.66 0.68 0.70 0.70 0.71 0.71 0.70 0.68 0.58 0.50 0.42 0.36 0.30 0.28 0.28 0.27 0.27 0.28 0.28
0.66 0.66 0.66 0.66 0.67 0.70 0.69 0.67 0.62 0.57 0.50 0.43 0.36 0.33 0.29 0.28 0.28 0.26 0.26 0.28 0.29 0.30
0.63 0.66 0.67 0.68 0.65 0.62 0.56 0.49 0.46 0.40 0.34 0.30 0.27 0.27 0.26 0.27 0.27 0.26 0.27 0.28 0.30 0.31
0.63 0.61 0.58 0.53 0.49 0.45 0.40 0.34 0.29 0.26 0.24 0.24 0.24 0.23 0.24 0.25 0.27 0.27 0.27 0.27 0.28 0.30

GFSNIL_prec_pwat_060.txt.gz
Precipitable_Water
1.23 1.26 1.21 1.16 1.16 1.18 1.14 1.12 1.19 1.15 1.08 1.02 0.95 0.90 0.87 0.81 0.86 0.84 0.74 0.68 0.65 0.59
1.14 1.18 1.16 1.21 1.20 1.21 1.18 1.16 1.22 1.14 1.05 0.98 0.93 0.94 0.85 0.87 0.87 0.79 0.73 0.68 0.63 0.58
1.13 1.14 1.18 1.21 1.20 1.18 1.19 1.22 1.13 1.06 1.00 0.96 0.95 0.95 0.89 0.85 0.81 0.75 0.72 0.68 0.62 0.59
1.08 1.10 1.17 1.18 1.19 1.21 1.21 1.17 1.11 1.03 0.99 0.97 0.93 0.93 0.87 0.80 0.76 0.75 0.71 0.66 0.59 0.54
1.07 1.10 1.13 1.14 1.17 1.20 1.13 1.10 1.09 1.07 1.01 0.97 0.89 0.87 0.81 0.78 0.77 0.70 0.65 0.61 0.57 0.52
1.05 1.04 1.05 1.08 1.10 1.10 1.11 1.10 1.05 0.99 0.96 0.89 0.81 0.77 0.80 0.77 0.70 0.66 0.62 0.57 0.53 0.47
0.97 0.97 0.96 0.97 0.95 0.96 0.98 0.92 0.95 0.86 0.82 0.77 0.74 0.79 0.78 0.72 0.68 0.64 0.60 0.56 0.48 0.43
0.95 0.92 0.90 0.87 0.89 0.90 0.88 0.82 0.78 0.76 0.75 0.72 0.76 0.75 0.73 0.70 0.68 0.61 0.55 0.48 0.43 0.40
0.88 0.86 0.84 0.81 0.79 0.77 0.75 0.73 0.73 0.74 0.72 0.72 0.73 0.74 0.72 0.69 0.62 0.53 0.45 0.39 0.37 0.36
0.73 0.68 0.66 0.66 0.66 0.68 0.69 0.69 0.68 0.71 0.71 0.71 0.72 0.71 0.62 0.53 0.44 0.39 0.37 0.35 0.34 0.33
0.61 0.61 0.63 0.66 0.66 0.67 0.66 0.66 0.68 0.69 0.68 0.65 0.58 0.50 0.42 0.37 0.34 0.32 0.30 0.30 0.32 0.32
0.64 0.61 0.61 0.61 0.63 0.66 0.66 0.66 0.64 0.58 0.51 0.45 0.40 0.37 0.32 0.29 0.28 0.27 0.28 0.30 0.32 0.32
0.61 0.59 0.60 0.61 0.60 0.58 0.53 0.47 0.44 0.38 0.34 0.31 0.28 0.28 0.26 0.26 0.27 0.26 0.28 0.29 0.29 0.30
0.59 0.58 0.55 0.51 0.48 0.43 0.37 0.33 0.31 0.29 0.30 0.30 0.31 0.30 0.30 0.29 0.28 0.27 0.26 0.26 0.27 0.29

GFSNIL_prec_pwat_063.txt.gz
Precipitable_Water
1.24 1.20 1.18 1.20 1.18 1.23 1.17 1.17 1.21 1.25 1.20 1.16 1.17 1.15 1.10 1.02 0.93 0.90 0.86 0.88 0.83 0.76
1.24 1.21 1.18 1.21 1.22 1.15 1.18 1.16 1.20 1.24 1.20 1.17 1.15 1.09 1.05 0.95 0.94 0.93 0.88 0.86 0.82 0.72
1.19 1.21 1.24 1.24 1.17 1.15 1.17 1.19 1.19 1.20 1.18 1.14 1.11 1.05 1.01 0.93 0.93 0.87 0.85 0.80 0.74 0.73
1.22 1.20 1.22 1.19 1.18 1.17 1.21 1.19 1.16 1.15 1.08 1.09 1.05 1.01 0.98 0.93 0.88 0.82 0.81 0.80 0.75 0.69
1.10 1.11 1.13 1.14 1.17 1.15 1.11 1.10 1.07 1.02 1.02 1.04 0.99 0.96 0.93 0.86 0.81 0.78 0.75 0.75 0.70 0.64
1.03 1.06 1.08 1.06 1.05 1.03 1.01 1.01 0.98 0.94 0.95 0.98 0.88 0.86 0.82 0.75 0.73 0.73 0.73 0.68 0.65 0.63
1.02 1.02 1.00 1.01 0.99 0.97 0.96 0.92 0.90 0.88 0.84 0.83 0.78 0.76 0.75 0.75 0.72 0.70 0.69 0.70 0.67 0.60
1.01 1.01 0.99 1.00 0.97 0.94 0.90 0.88 0.85 0.81 0.77 0.75 0.75 0.74 0.74 0.72 0.70 0.69 0.68 0.64 0.57 0.50
0.98 0.97 0.94 0.90 0.87 0.84 0.80 0.79 0.76 0.73 0.71 0.72 0.71 0.72 0.73 0.71 0.67 0.63 0.55 0.48 0.43 0.42
0.88 0.82 0.78 0.73 0.67 0.67 0.67 0.69 0.68 0.68 0.68 0.68 0.70 0.71 0.67 0.60 0.53 0.45 0.38 0.36 0.36 0.35
0.68 0.64 0.62 0.61 0.62 0.63 0.64 0.63 0.65 0.66 0.68 0.66 0.63 0.58 0.49 0.41 0.36 0.33 0.32 0.32 0.32 0.32
0.60 0.58 0.57 0.57 0.58 0.61 0.62 0.62 0.61 0.59 0.55 0.48 0.44 0.41 0.36 0.32 0.29 0.29 0.29 0.30 0.30 0.29
0.58 0.57 0.56 0.59 0.59 0.59 0.57 0.51 0.47 0.42 0.38 0.35 0.33 0.38 0.35 0.32 0.31 0.28 0.27 0.27 0.27 0.26
0.57 0.56 0.56 0.54 0.51 0.47 0.42 0.38 0.37 0.34 0.36 0.36 0.35 0.34 0.30 0.27 0.23 0.22 0.20 0.19 0.18 0.20

GFSNIL_prec_pwat_066.txt.gz
Precipitable_Water
1.11 1.13 1.12 1.07 1.06 1.07 1.09 1.08 1.12 1.12 1.20 1.19 1.20 1.22 1.22 1.14 1.12 1.08 1.02 0.94 0.88 0.90
1.09 1.13 1.23 1.24 1.14 1.15 1.21 1.19 1.21 1.23 1.16 1.17 1.19 1.20 1.13 1.10 1.07 1.03 0.96 0.91 0.88 0.87
1.11 1.17 1.19 1.25 1.21 1.29 1.30 1.23 1.22 1.18 1.20 1.17 1.13 1.07 1.01 1.06 1.04 0.96 0.91 0.86 0.83 0.83
1.17 1.22 1.28 1.31 1.28 1.19 1.25 1.23 1.19 1.13 1.12 1.07 1.04 0.97 0.93 0.95 0.94 0.93 0.84 0.80 0.77 0.78
1.36 1.38 1.25 1.16 1.17 1.20 1.17 1.19 1.13 1.09 1.02 1.00 0.97 0.92 0.89 0.89 0.86 0.80 0.72 0.72 0.71 0.71
1.28 1.20 1.09 1.07 1.09 1.11 1.08 1.05 1.04 1.02 0.99 0.95 0.90 0.85 0.83 0.81 0.76 0.72 0.72 0.71 0.70 0.67
1.02 1.04 0.99 1.00 1.03 1.05 1.03 1.02 1.01 1.00 0.94 0.88 0.85 0.81 0.78 0.75 0.73 0.72 0.71 0.71 0.69 0.68
0.94 0.97 1.02 1.05 1.04 1.04 1.02 0.97 0.95 0.89 0.81 0.78 0.77 0.74 0.74 0.71 0.70 0.69 0.69 0.68 0.64 0.57
0.97 1.03 1.01 0.99 0.99 0.95 0.90 0.85 0.80 0.77 0.73 0.72 0.71 0.72 0.71 0.70 0.69 0.66 0.60 0.53 0.47 0.46
0.98 0.95 0.93 0.93 0.84 0.75 0.69 0.67 0.66 0.67 0.67 0.66 0.67 0.68 0.67 0.64 0.57 0.48 0.42 0.38 0.36 0.35
0.82 0.74 0.71 0.69 0.67 0.64 0.63 0.63 0.62 0.62 0.64 0.64 0.63 0.62 0.56 0.50 0.41 0.36 0.34 0.33 0.33 0.33
0.66 0.63 0.63 0.59 0.56 0.57 0.58 0.59 0.60 0.60 0.57 0.55 0.50 0.46 0.40 0.36 0.35 0.33 0.32 0.32 0.30 0.28
0.65 0.59 0.54 0.55 0.56 0.58 0.57 0.56 0.56 0.51 0.46 0.41 0.39 0.38 0.36 0.34 0.32 0.28 0.24 0.23 0.21 0.19
0.57 0.56 0.57 0.57 0.56 0.55 0.49 0.47 0.43 0.39 0.39 0.38 0.38 0.36 0.32 0.29 0.25 0.23 0.21 0.19 0.17 0.17

GFSNIL_prec_pwat_069.txt.gz
Precipitable_Water
1.02 1.03 0.99 1.01 0.98 0.96 0.96 1.03 1.13 1.19 1.20 1.21 1.22 1.20 1.19 1.14 1.10 1.08 1.00 1.04 1.04 0.98
1.04 1.06 1.04 1.02 1.07 1.09 1.12 1.12 1.22 1.29 1.23 1.24 1.20 1.15 1.12 1.08 1.06 0.98 0.96 1.00 0.97 0.91
1.03 1.11 1.18 1.14 1.14 1.21 1.26 1.32 1.22 1.29 1.24 1.24 1.17 1.12 1.08 1.00 1.02 0.90 0.90 0.91 0.87 0.84
1.06 1.11 1.18 1.24 1.33 1.35 1.38 1.30 1.24 1.21 1.18 1.12 1.07 1.06 1.04 1.01 0.91 0.87 0.81 0.79 0.77 0.76
1.23 1.25 1.33 1.44 1.36 1.23 1.19 1.23 1.16 1.12 1.05 1.03 1.02 1.03 1.00 0.90 0.85 0.76 0.77 0.77 0.74 0.70
1.27 1.37 1.20 1.16 1.22 1.24 1.18 1.14 1.10 1.08 1.05 1.02 1.01 0.98 0.88 0.81 0.81 0.78 0.77 0.72 0.71 0.70
1.11 1.14 1.16 1.17 1.10 1.08 1.08 1.08 1.06 1.05 1.03 0.98 0.93 0.87 0.79 0.77 0.77 0.72 0.73 0.73 0.70 0.71
0.98 1.00 1.01 0.99 1.01 1.04 1.07 1.04 1.03 1.01 0.95 0.89 0.82 0.75 0.76 0.74 0.72 0.71 0.70 0.69 0.69 0.65
0.90 0.92 0.91 0.93 1.00 1.02 1.00 0.97 0.95 0.88 0.80 0.73 0.72 0.74 0.73 0.72 0.68 0.67 0.66 0.61 0.54 0.47
0.88 0.86 0.90 0.95 0.92 0.90 0.86 0.81 0.74 0.70 0.67 0.66 0.67 0.68 0.68 0.68 0.65 0.60 0.51 0.43 0.36 0.35
0.83 0.86 0.85 0.81 0.74 0.70 0.68 0.66 0.65 0.62 0.63 0.61 0.62 0.63 0.62 0.60 0.52 0.43 0.37 0.34 0.33 0.32
0.79 0.72 0.67 0.65 0.65 0.64 0.63 0.58 0.56 0.57 0.57 0.58 0.58 0.60 0.54 0.44 0.38 0.35 0.33 0.33 0.30 0.26
0.66 0.65 0.63 0.61 0.59 0.57 0.55 0.55 0.55 0.55 0.55 0.52 0.46 0.43 0.39 0.37 0.36 0.32 0.28 0.25 0.23 0.21
0.64 0.63 0.62 0.58 0.55 0.54 0.54 0.53 0.51 0.47 0.46 0.44 0.42 0.39 0.38 0.36 0.31 0.27 0.23 0.21 0.20 0.20

GFSNIL_prec_pwat_075.txt.gz
Precipitable_Water
0.73 0.73 0.78 0.80 0.82 0.82 0.81 0.82 0.88 0.92 0.95 0.98 1.06 1.13 1.23 1.29 1.27 1.23 1.13 1.08 1.07 1.03
0.76 0.78 0.81 0.86 0.85 0.82 0.86 0.93 1.01 1.05 1.03 1.09 1.09 1.14 1.25 1.28 1.22 1.18 1.12 1.09 1.05 1.09
0.82 0.85 0.88 0.89 0.89 0.93 1.04 1.13 1.19 1.23 1.25 1.23 1.19 1.22 1.23 1.23 1.25 1.21 1.16 1.12 1.08 1.03
0.94 0.95 0.97 0.98 1.01 1.09 1.20 1.25 1.29 1.31 1.29 1.26 1.23 1.20 1.20 1.19 1.21 1.14 1.11 1.08 1.00 0.96
1.14 1.04 1.07 1.08 1.13 1.14 1.15 1.24 1.24 1.21 1.17 1.10 1.12 1.17 1.14 1.14 1.17 1.11 1.08 1.02 0.92 0.90
1.10 1.06 0.98 1.03 1.14 1.21 1.23 1.31 1.16 1.09 1.08 1.13 1.10 1.17 1.18 1.16 1.11 1.09 1.02 0.98 0.91 0.81
1.13 1.01 1.00 1.02 1.13 1.23 1.21 1.19 1.11 1.14 1.13 1.09 1.09 1.10 1.11 1.11 1.06 0.99 0.96 0.92 0.82 0.77
1.03 1.08 1.07 1.03 1.04 1.10 1.10 1.09 1.08 1.10 1.04 1.06 1.07 1.08 1.07 1.03 0.98 0.93 0.83 0.79 0.79 0.76
1.06 1.05 1.00 0.96 0.97 1.00 1.02 1.04 1.03 1.00 1.03 1.03 1.03 1.04 1.01 0.97 0.89 0.85 0.79 0.72 0.68 0.68
0.95 0.91 0.90 0.92 0.90 0.92 0.95 1.00 0.98 0.97 1.00 0.98 0.98 0.95 0.91 0.86 0.80 0.73 0.69 0.66 0.66 0.62
0.89 0.88 0.87 0.82 0.85 0.89 0.93 0.93 0.92 0.97 0.97 0.89 0.86 0.84 0.80 0.76 0.70 0.67 0.64 0.62 0.60 0.58
0.90 0.87 0.79 0.81 0.86 0.90 0.90 0.91 0.88 0.82 0.79 0.76 0.75 0.74 0.70 0.66 0.62 0.59 0.57 0.56 0.53 0.48
0.85 0.81 0.84 0.87 0.87 0.85 0.79 0.75 0.74 0.71 0.71 0.69 0.66 0.66 0.65 0.61 0.57 0.52 0.50 0.47 0.39 0.33
0.80 0.83 0.82 0.79 0.77 0.74 0.71 0.69 0.66 0.64 0.64 0.64 0.64 0.62 0.60 0.58 0.54 0.48 0.40 0.35 0.32 0.28

GFSNIL_prec_pwat_078.txt.gz
Precipitable_Water
0.83 0.83 0.84 0.83 0.82 0.80 0.79 0.81 0.86 0.91 0.94 0.95 0.95 0.92 0.95 0.96 1.05 1.15 1.19 1.22 1.20 1.15
0.81 0.85 0.84 0.86 0.87 0.84 0.84 0.86 0.92 0.96 0.93 0.92 0.95 1.01 1.02 1.05 1.08 1.13 1.23 1.16 1.16 1.14
0.78 0.82 0.83 0.84 0.81 0.81 0.84 0.88 0.92 0.90 0.91 0.95 1.04 1.11 1.13 1.15 1.19 1.16 1.21 1.21 1.15 1.18
0.78 0.81 0.81 0.80 0.78 0.78 0.85 0.89 0.90 0.97 1.07 1.15 1.22 1.26 1.21 1.25 1.21 1.17 1.18 1.16 1.13 1.18
0.94 0.96 0.90 0.89 0.90 0.93 0.93 1.00 1.05 1.14 1.22 1.20 1.15 1.17 1.20 1.16 1.18 1.12 1.10 1.10 1.11 1.13
1.05 1.08 1.03 1.00 0.95 1.00 1.04 1.15 1.18 1.18 1.17 1.20 1.21 1.08 1.07 1.11 1.07 1.06 1.09 1.08 1.11 1.05
1.01 1.10 1.10 1.12 1.03 1.01 1.07 1.16 1.18 1.18 1.16 1.11 1.13 1.09 1.07 1.09 1.08 1.05 1.07 1.04 1.05 0.99
0.94 1.04 1.09 1.09 1.10 1.06 1.04 1.06 1.11 1.17 1.20 1.14 1.10 1.06 1.07 1.06 1.02 0.98 1.02 0.98 0.96 0.93
0.89 0.97 1.04 1.09 1.07 1.05 1.00 1.00 1.02 1.04 1.08 1.07 1.00 1.02 1.05 1.02 1.02 0.99 0.95 0.88 0.84 0.77
0.88 0.94 1.00 1.01 0.98 0.95 0.94 0.94 0.91 0.93 0.96 0.99 1.02 1.00 1.01 1.00 0.96 0.90 0.84 0.79 0.74 0.69
0.88 0.90 0.95 0.94 0.92 0.91 0.91 0.84 0.84 0.88 0.92 0.92 0.92 0.94 0.94 0.90 0.85 0.83 0.78 0.73 0.71 0.65
0.89 0.90 0.93 0.95 0.93 0.89 0.84 0.87 0.88 0.90 0.89 0.89 0.88 0.84 0.82 0.79 0.75 0.71 0.67 0.63 0.59 0.57
0.92 0.91 0.91 0.87 0.80 0.85 0.87 0.86 0.88 0.85 0.83 0.80 0.76 0.76 0.74 0.72 0.68 0.62 0.58 0.56 0.54 0.53
0.90 0.87 0.84 0.82 0.85 0.85 0.84 0.82 0.78 0.75 0.74 0.73 0.71 0.70 0.69 0.66 0.62 0.59 0.56 0.54 0.52 0.50